Time+03,TemperatureF,Dew PointF,Humidity,Sea Level PressureIn,VisibilityMPH,Wind Direction,Wind SpeedMPH,Gust SpeedMPH,PrecipitationIn,Events,Conditions,WindDirDegrees,DateUTC
12:00 AM,93.2,62.6,36,29.65,-9999.0,SW,6.9,-,N/A,,Clear,230,2013-05-16 21:00:00
12:30 AM,93.2,57.2,30,29.65,-9999.0,SSW,8.1,-,N/A,,Clear,210,2013-05-16 21:30:00
1:00 AM,91.4,60.8,36,29.65,-9999.0,SW,6.9,-,N/A,,Clear,220,2013-05-16 22:00:00
1:30 AM,91.4,60.8,36,29.65,-9999.0,SW,6.9,-,N/A,,Clear,220,2013-05-16 22:30:00
2:00 AM,91.4,57.2,31,29.65,-9999.0,West,6.9,-,N/A,,Clear,260,2013-05-16 23:00:00
2:30 AM,91.4,53.6,28,29.65,5.6,West,4.6,-,N/A,,Unknown,260,2013-05-16 23:30:00
3:00 AM,92,54,18,29.68,6,WNW,8.1,,,,Widespread Dust,300,2013-05-17 00:00:00
3:00 AM,91.4,53.6,28,29.68,5.6,WNW,8.1,-,N/A,,Unknown,300,2013-05-17 00:00:00
3:30 AM,89.6,68.0,49,29.68,-9999.0,NW,10.4,-,N/A,,Clear,320,2013-05-17 00:30:00
4:00 AM,87.8,69.8,55,29.68,-9999.0,NNW,12.7,-,N/A,,Clear,330,2013-05-17 01:00:00
4:30 AM,87.8,68.0,52,29.71,-9999.0,NNW,16.1,-,N/A,,Clear,330,2013-05-17 01:30:00
5:00 AM,87.8,66.2,49,29.71,-9999.0,NNW,15.0,-,N/A,,Clear,330,2013-05-17 02:00:00
5:30 AM,86.0,66.2,51,29.74,-9999.0,NNW,17.3,-,N/A,,Clear,340,2013-05-17 02:30:00
6:00 AM,86.0,64.4,48,29.74,-9999.0,NNW,18.4,-,N/A,,Clear,340,2013-05-17 03:00:00
6:30 AM,87.8,62.6,43,29.77,5.6,NNW,20.7,-,N/A,,Unknown,340,2013-05-17 03:30:00
7:00 AM,89.6,62.6,40,29.77,5.0,NNW,21.9,-,N/A,,Unknown,340,2013-05-17 04:00:00
8:00 AM,91.4,60.8,36,29.80,5.0,NNW,23.0,-,N/A,,Unknown,340,2013-05-17 05:00:00
8:30 AM,93.2,59.0,32,29.80,5.0,NNW,23.0,-,N/A,,Unknown,340,2013-05-17 05:30:00
9:00 AM,95,59,21,29.82,4,NNW,21.9,,,,Widespread Dust,340,2013-05-17 06:00:00
9:00 AM,95.0,59.0,30,29.80,3.7,NNW,21.9,-,N/A,,Unknown,340,2013-05-17 06:00:00
10:00 AM,96.8,53.6,23,29.80,3.7,North,23.0,-,N/A,,Unknown,350,2013-05-17 07:00:00
10:30 AM,98.6,51.8,21,29.80,3.7,North,21.9,-,N/A,,Unknown,350,2013-05-17 07:30:00
11:00 AM,98.6,53.6,22,29.80,3.7,North,23.0,-,N/A,,Unknown,350,2013-05-17 08:00:00
11:30 AM,100.4,53.6,21,29.80,4.3,North,21.9,-,N/A,,Unknown,350,2013-05-17 08:30:00
12:00 PM,100.4,50.0,18,29.80,4.3,North,23.0,-,N/A,,Unknown,350,2013-05-17 09:00:00
12:30 PM,100.4,55.4,22,29.80,4.3,North,20.7,-,N/A,,Unknown,350,2013-05-17 09:30:00
1:00 PM,100.4,57.2,24,29.80,3.7,North,19.6,-,N/A,,Unknown,350,2013-05-17 10:00:00
1:30 PM,100.4,46.4,16,29.77,3.7,North,24.2,-,N/A,,Unknown,350,2013-05-17 10:30:00
2:00 PM,100.4,48.2,17,29.77,4.3,North,24.2,-,N/A,,Unknown,350,2013-05-17 11:00:00
2:30 PM,98.6,53.6,22,29.77,5.6,North,21.9,-,N/A,,Unknown,350,2013-05-17 11:30:00
3:00 PM,98,50,12,29.79,6,North,23.0,,,,,0,2013-05-17 12:00:00
3:00 PM,98.6,50.0,19,29.77,-9999.0,North,23.0,-,N/A,,Clear,360,2013-05-17 12:00:00
3:30 PM,98.6,46.4,17,29.77,-9999.0,North,24.2,-,N/A,,Clear,350,2013-05-17 12:30:00
4:00 PM,96.8,42.8,16,29.77,-9999.0,North,24.2,-,N/A,,Clear,350,2013-05-17 13:00:00
4:30 PM,96.8,42.8,16,29.77,-9999.0,North,24.2,-,N/A,,Clear,350,2013-05-17 13:30:00
5:00 PM,95.0,46.4,19,29.80,-9999.0,North,21.9,-,N/A,,Clear,350,2013-05-17 14:00:00
5:30 PM,93.2,46.4,20,29.80,-9999.0,NNW,21.9,-,N/A,,Clear,340,2013-05-17 14:30:00
6:00 PM,91.4,48.2,23,29.80,-9999.0,NNW,19.6,-,N/A,,Clear,340,2013-05-17 15:00:00
6:30 PM,91.4,50.0,24,29.80,-9999.0,NNW,20.7,-,N/A,,Clear,340,2013-05-17 15:30:00
7:30 PM,89.6,48.2,24,29.83,-9999.0,NNW,16.1,-,N/A,,Clear,330,2013-05-17 16:30:00
8:00 PM,87.8,50.0,27,29.83,-9999.0,NNW,17.3,-,N/A,,Clear,330,2013-05-17 17:00:00
8:30 PM,87.8,50.0,27,29.83,-9999.0,NNW,16.1,27.6,N/A,,Clear,340,2013-05-17 17:30:00
9:00 PM,88,49,17,29.86,7,NNW,16.1,,,,,330,2013-05-17 18:00:00
9:00 PM,87.8,48.2,25,29.86,-9999.0,NNW,16.1,27.6,N/A,,Clear,330,2013-05-17 18:00:00
10:00 PM,89.6,39.2,17,29.86,-9999.0,NNW,19.6,31.1,N/A,,Clear,330,2013-05-17 19:00:00
10:30 PM,89.6,37.4,16,29.86,-9999.0,NNW,15.0,-,N/A,,Clear,330,2013-05-17 19:30:00
11:00 PM,89.6,39.2,17,29.83,-9999.0,NW,9.2,-,N/A,,Clear,320,2013-05-17 20:00:00